CAPE
4 2 45 672 743 756 119 0 0 0 5 454 615 711 1091 855 716 550 677 647 602 429 159 33 200 255 558 874 1081 1232 1162 1088 993 896 999 1330 1184 1085 783 694 759 638 541 486
0 1 24 104 117 28 737 608 747 608 558 899 751 1003 1155 1046 788 403 151 45 50 20 0 2 36 13 33 55 229 12 42 95 11 267 972 1183 1028 992 780 726 587 555 502 400
0 1 75 286 453 45 456 600 763 586 728 687 826 922 825 633 701 657 556 84 21 2 0 2 1 21 181 85 3 4 0 0 0 0 388 1060 903 878 829 602 278 208 294 372
0 0 1 467 239 520 257 396 736 759 673 593 473 210 235 330 353 306 395 50 0 1 98 461 229 372 943 728 25 2 0 0 0 15 212 562 743 577 528 356 0 0 42 76
0 0 26 455 3 1 9 15 517 539 297 55 36 19 0 3 148 29 0 107 74 77 106 45 17 42 691 706 814 470 0 0 0 111 559 735 745 413 387 309 13 0 3 0
0 5 1 178 139 13 33 34 590 371 240 306 141 30 0 5 119 0 0 0 0 0 0 1 0 0 23 247 164 162 134 159 273 1329 888 868 651 428 290 34 16 0 0 0
12 35 212 484 287 353 84 122 562 138 20 44 0 0 164 165 7 0 0 0 0 0 0 0 0 0 0 1 2 7 68 70 40 391 763 492 100 25 0 0 0 0 0 0
1 93 71 340 583 487 391 441 347 372 366 29 209 325 118 8 0 0 0 0 0 0 0 0 0 0 0 0 0 0 10 50 11 0 20 80 58 0 0 0 0 0 0 0
0 56 105 98 356 349 366 455 397 434 455 17 171 118 9 0 0 0 0 0 0 0 0 0 0 0 0 0 0 0 0 0 0 0 0 0 0 0 0 0 0 0 0 0
44 76 177 240 249 203 138 210 361 362 357 438 345 67 1 0 0 0 0 0 0 0 0 0 0 0 0 0 0 0 0 0 0 0 0 0 0 0 0 0 0 1 0 0
7 69 119 130 119 3 22 105 322 220 409 342 116 52 6 0 0 0 0 0 0 0 0 0 0 0 0 0 0 0 0 0 0 0 0 0 0 0 0 0 1 1 0 0
18 39 33 21 10 0 1 5 15 36 49 249 146 68 21 0 0 0 0 0 0 0 0 0 0 0 0 0 0 0 0 0 0 0 0 2 3 0 2 0 0 0 0 0
70 59 20 0 0 0 0 0 0 16 59 62 35 0 5 0 0 0 0 0 0 0 0 0 0 0 0 0 0 0 0 0 0 0 2 0 1 2 2 0 1 2 0 0
65 87 74 38 6 16 0 149 51 57 75 112 0 0 0 0 0 0 0 0 0 0 0 0 0 0 0 0 0 0 0 0 0 1 2 1 0 1 11 0 0 0 6 0
100 110 54 31 129 136 319 67 7 2 8 0 0 0 0 0 0 0 0 0 0 0 0 0 0 0 0 0 0 0 0 0 0 0 0 0 1 1 0 0 1 3 6 7
53 49 12 15 209 245 6 7 0 0 5 0 0 0 0 0 0 0 0 0 2 0 0 0 0 0 0 0 0 0 0 0 0 0 0 0 0 0 0 1 0 0 1 4
27 7 31 36 122 10 6 0 0 0 0 0 0 0 0 0 0 0 0 3 0 0 0 0 0 0 0 0 0 0 0 0 0 0 0 0 0 3 0 2 1 0 0 0
0 0 89 29 65 8 16 4 0 0 0 0 0 0 0 0 0 0 0 0 0 0 0 0 0 0 0 0 0 0 0 0 0 0 0 0 0 6 0 0 1 0 0 0
0 0 15 123 56 12 9 4 1 0 0 0 0 0 0 4 0 0 0 0 0 0 0 0 0 0 0 0 0 0 0 0 0 0 0 0 0 0 3 3 8 5 3 1
7 0 0 22 15 6 1 0 0 0 0 0 0 0 8 0 0 0 0 0 0 0 0 0 0 0 0 0 0 0 0 0 0 0 0 0 0 0 1 4 1 3 6 0
100 57 29 16 0 0 0 0 0 0 0 0 0 0 2 0 0 0 0 0 0 0 0 0 2 0 0 0 0 0 0 0 0 0 0 0 0 0 0 6 1 0 2 2
20 1 0 0 0 0 0 0 0 0 0 0 0 0 0 0 0 0 0 0 0 0 0 0 0 0 0 0 0 0 7 6 9 8 2 0 0 1 0 0 1 0 0 0
0 0 0 0 0 0 0 0 0 0 0 0 0 0 0 0 0 0 0 0 0 0 0 0 0 0 0 0 0 0 10 9 8 8 6 4 0 0 0 0 0 0 0 0
0 0 0 0 0 0 0 0 0 0 0 0 0 0 0 0 0 0 0 0 0 0 0 0 0 0 0 0 0 3 12 13 15 5 11 9 6 19 11 0 0 0 0 0
0 0 0 0 0 0 1 7 16 16 7 0 0 0 0 0 0 0 0 0 0 0 0 0 0 0 0 0 0 0 0 11 4 0 0 0 0 0 0 0 0 0 0 0
6 6 8 6 11 26 18 23 41 36 22 22 18 3 1 0 0 0 0 0 0 0 0 0 0 0 0 0 0 0 0 0 18 8 2 0 0 0 0 0 0 0 0 0
5 0 11 16 11 9 8 11 18 47 25 32 39 42 25 24 27 17 0 0 0 0 0 0 0 0 0 0 0 0 0 0 0 14 10 1 0 0 0 0 0 0 0 0
CIN
-152 -166 -154 -49 -81 -104 -114 0 0 0 -93 -279 -393 -350 -212 -363 -429 -445 -422 -384 -388 -346 -302 -154 -358 -317 -289 -214 -207 -113 -124 -100 -113 -154 -129 -49 -74 -55 -115 -209 -215 -231 -258 -242
-8 -52 -146 -93 -117 -68 -78 -166 -155 -168 -192 -258 -302 -187 -160 -253 -345 -485 -578 -607 -581 -513 0 -21 -222 -269 -342 -367 -327 -506 -529 -440 -468 -150 -64 -98 -159 -145 -163 -254 -412 -363 -300 -300
0 -138 -93 -46 -96 -25 -45 -192 -166 -91 -212 -248 -188 -160 -142 -191 -195 -264 -320 -509 -588 -184 0 -34 -58 -109 -167 -255 -131 -336 -7 0 0 0 -10 -120 -172 -151 -161 -236 -340 -310 -280 -300
0 0 -15 -81 -252 -141 -124 -148 -120 -161 -215 -236 -278 -434 -327 -208 -190 -238 -265 -357 -156 -272 -254 -183 -327 -223 -57 -76 -236 -86 0 0 -75 -163 -100 -175 -193 -209 -185 -260 0 0 -275 -298
0 0 -55 -78 -33 -37 -29 -56 -96 -128 -232 -390 -433 -463 -97 -469 -195 -404 0 -296 -356 -363 -363 -325 -394 -318 -48 -52 -66 -162 0 0 0 -128 -115 -253 -245 -268 -259 -224 -183 0 -245 0
0 -29 -3 -101 -208 -13 -103 -22 -86 -165 -197 -207 -312 -141 0 -348 -183 0 0 0 0 0 0 0 0 0 -235 -149 -200 -155 -159 -159 -179 -67 -170 -208 -227 -266 -289 -392 -366 0 0 0
-109 -44 -50 -142 -161 -113 -71 -62 -145 -200 -197 -251 0 0 -166 -197 -337 0 0 0 0 0 0 0 0 0 0 -124 -259 -275 -354 -366 -396 -262 -178 -230 -249 -242 0 0 0 0 0 0
-97 -47 -19 -239 -138 -60 -152 -155 -143 -123 -139 -301 -223 -143 -187 -300 0 0 0 0 0 0 0 0 0 0 0 0 0 0 -428 -403 -457 0 -146 -334 -335 -13 0 0 0 0 0 0
-9 -142 -214 -278 -203 -220 -168 -100 -86 -65 -62 -168 -57 -44 -200 0 0 0 0 0 0 0 0 0 0 0 0 0 0 0 0 0 0 0 0 0 0 0 0 0 0 0 0 0
-109 -144 -171 -173 -168 -180 -163 -105 -49 -35 -31 -26 -54 -109 -169 0 0 0 0 0 0 0 0 0 0 0 0 0 0 0 0 0 0 0 0 0 0 0 0 0 0 0 0 0
-105 -95 -121 -137 -132 -127 -151 -79 -35 -35 -29 -26 -44 -93 -157 0 0 0 0 0 0 0 0 0 0 0 0 0 0 0 0 0 0 0 0 0 0 0 0 0 0 0 0 0
-52 -79 -117 -133 -139 -40 -50 -79 -66 -58 -54 -47 -55 -67 -116 0 0 0 0 0 0 0 0 0 0 0 0 0 0 0 0 0 0 0 0 0 -24 0 0 0 0 0 0 0
-35 -107 -111 0 0 -6 -4 0 0 -31 -31 -72 -94 0 -111 0 0 0 0 0 0 0 0 0 0 0 0 0 0 0 0 0 0 0 0 0 0 -2 0 0 0 0 0 0
-116 -94 -59 -55 -34 -84 -24 -43 -51 -46 -78 -88 0 0 0 0 0 0 0 0 0 0 0 0 0 0 0 0 0 0 0 0 0 0 0 0 0 0 -76 0 0 0 0 0
-101 -73 -64 -90 -70 -65 -58 -61 -37 -23 -63 0 0 0 0 0 0 0 0 0 0 0 0 0 0 0 0 0 0 0 0 0 0 0 0 0 0 0 0 0 0 0 0 0
-109 -98 -81 -67 -57 -52 -58 -64 0 0 -67 0 0 0 0 0 0 0 0 0 -35 -13 0 0 0 0 0 0 0 0 0 0 0 0 0 0 0 0 0 0 0 0 0 0
-58 -49 -62 -69 -59 -52 -60 0 0 0 0 0 0 0 0 0 0 0 0 -54 0 0 0 0 0 0 0 0 0 0 0 0 0 0 0 0 0 -4 0 0 0 0 0 0
0 0 -78 -45 -50 -54 -78 -91 0 0 0 0 0 0 0 0 0 0 0 0 0 0 0 0 0 0 0 0 0 0 0 0 0 0 0 0 0 -18 0 -1 -1 0 -1 0
0 0 -45 -64 -115 -68 -82 -85 -33 0 0 0 0 0 -41 -72 0 0 0 0 0 0 0 0 0 -13 0 0 0 0 0 0 0 0 0 0 0 0 -16 0 0 -3 -5 -5
-78 0 0 -186 -192 -105 -41 0 0 0 0 0 0 0 -50 0 0 0 0 0 0 0 0 0 -1 -9 0 0 0 0 0 0 0 0 0 0 0 0 -85 -52 0 -12 -21 -20
-69 -100 -116 -107 0 0 0 0 0 0 0 0 0 0 -37 0 0 0 0 0 0 0 0 0 -11 -1 0 0 0 0 -5 -7 -8 0 0 0 0 0 0 -75 -24 0 -55 0
-123 -64 0 0 0 0 0 0 0 0 0 0 0 0 0 0 0 0 0 0 0 0 0 0 0 0 -50 0 0 0 -46 -53 -55 -68 -68 -19 0 -34 -26 0 -71 0 0 0
0 0 0 0 0 0 0 0 0 0 0 0 0 0 0 0 0 0 0 0 0 0 0 0 0 0 0 0 0 0 -43 -45 -55 -53 -58 -74 0 0 -9 0 0 0 0 0
0 0 0 0 0 0 0 0 0 0 0 0 0 0 0 0 0 0 0 0 0 0 0 0 0 0 0 0 0 -40 -34 -36 -44 -54 -59 -61 -53 -47 -46 -3 0 0 0 0
0 0 0 0 0 -8 -11 -65 -73 -75 -79 -11 0 0 0 0 0 -4 0 0 0 0 0 0 0 0 0 0 0 0 -3 -32 -34 0 0 0 0 0 0 0 0 0 0 0
-40 -38 -52 -67 -70 -66 -73 -85 -46 -63 -77 -54 -51 -25 -27 -35 0 0 0 0 0 0 0 0 0 0 0 0 0 0 0 0 -40 -44 -22 0 0 0 0 0 0 0 0 0
-65 0 -59 -42 -67 -72 -69 -68 -62 -49 -67 -89 -83 -108 -55 -55 -57 -54 0 0 0 0 0 0 0 0 0 0 0 0 0 0 0 -48 -51 -9 0 0 0 0 0 0 0 0
Wind_Speed
30 26 31 30 28 30 30 30 26 26 31 30 26 23 22 18 15 14 13 12 12 15 15 8 1 7 6 9 14 24 18 18 23 16 4 2 2 3 3 4 6 4 4 3
32 26 26 30 27 31 28 19 19 17 23 20 18 17 17 15 14 14 15 16 16 19 23 21 10 10 9 10 9 16 15 17 24 27 14 2 1 2 3 3 2 2 3 8
34 29 28 25 26 27 23 22 23 25 20 13 14 15 17 16 15 15 16 19 24 28 30 36 19 17 18 17 6 15 21 22 24 38 33 4 3 4 6 4 0 2 4 4
32 31 31 20 23 21 25 18 16 7 7 8 10 13 15 19 20 19 19 18 18 20 22 25 24 23 21 13 16 7 14 15 22 38 32 6 5 8 6 6 6 6 7 8
27 29 25 23 22 24 26 24 17 14 9 9 11 14 18 19 23 23 23 20 20 21 19 20 21 22 19 19 16 15 15 15 10 24 15 6 8 6 7 8 9 11 12 13
23 26 27 19 15 14 12 22 11 10 13 12 18 23 20 18 22 23 23 23 26 23 22 21 22 22 20 18 17 18 17 22 29 9 7 7 9 9 10 13 14 15 14 18
22 22 19 18 17 12 14 19 16 15 17 14 19 17 14 15 18 21 22 22 23 23 21 20 22 22 20 20 20 22 24 26 28 28 18 15 17 16 17 20 20 16 17 19
22 19 19 20 16 16 17 17 16 17 19 14 13 13 12 14 15 19 20 21 21 20 19 19 21 22 23 24 26 27 26 25 28 26 24 22 21 22 24 28 25 22 23 22
19 21 18 18 15 17 15 16 17 17 17 15 14 14 14 14 14 15 18 19 19 20 21 21 22 23 25 27 29 31 31 31 31 29 26 25 26 26 27 25 21 22 22 22
21 20 20 18 17 16 17 17 18 17 16 14 14 13 13 12 14 16 18 18 17 19 20 21 23 24 27 30 32 32 32 33 33 32 31 29 27 28 28 26 23 21 22 21
19 22 19 21 16 18 19 18 15 16 15 14 14 12 12 13 13 15 16 16 18 20 22 24 26 27 29 30 32 34 35 36 37 35 34 33 30 29 29 26 23 20 20 17
20 19 14 13 15 19 19 19 19 18 18 16 14 13 12 12 11 13 14 15 17 19 21 24 26 28 30 30 31 31 32 33 33 32 31 29 29 25 26 25 23 22 21 15
18 15 12 16 18 16 18 18 19 19 20 21 19 17 14 12 11 12 14 15 16 17 21 24 27 28 30 30 31 32 31 31 29 29 30 29 28 27 22 21 20 21 21 14
16 12 16 15 16 17 17 17 17 19 20 20 19 17 15 14 14 15 15 15 17 21 24 26 27 29 30 30 31 31 31 30 29 30 30 29 26 25 21 22 24 25 24 20
11 11 13 15 16 14 14 16 18 21 21 21 19 19 19 19 18 17 16 16 19 22 24 26 28 30 30 30 31 31 30 30 31 29 28 28 26 23 23 22 22 22 21 19
11 14 14 16 13 13 17 18 20 20 21 21 20 20 20 18 17 16 17 18 19 21 24 25 27 28 28 28 30 30 29 29 29 29 27 27 26 23 21 19 16 15 15 13
14 17 18 15 10 10 13 18 20 20 20 19 18 18 18 18 21 21 21 21 22 25 26 27 29 29 29 29 30 30 28 29 28 27 26 25 25 19 14 13 14 13 12 11
18 20 10 9 10 10 14 16 19 18 17 16 16 17 18 20 22 21 21 24 26 27 26 26 26 28 27 28 29 29 28 27 26 25 24 21 22 20 15 15 13 11 11 11
20 19 10 11 10 10 10 12 14 14 16 16 15 15 18 20 19 19 24 27 26 25 25 26 28 27 27 28 28 28 27 25 25 23 23 21 20 19 18 13 11 10 9 9
16 14 12 12 13 12 11 14 15 16 16 14 13 15 18 24 23 25 27 27 28 27 28 28 27 26 26 27 27 27 25 23 23 22 20 19 18 17 17 14 11 8 8 8
14 15 15 15 15 16 18 19 20 18 17 15 10 8 11 17 20 22 24 28 27 25 25 26 24 23 25 26 26 25 23 22 21 20 18 17 17 16 14 12 9 7 8 8
16 17 17 18 18 18 19 21 21 15 16 17 15 14 14 14 18 17 17 18 20 24 23 23 22 22 24 26 25 23 22 21 20 19 17 16 16 15 14 12 10 9 9 7
18 17 17 18 18 18 19 18 17 15 15 16 17 17 16 15 14 16 21 21 19 18 20 20 20 23 24 23 22 21 20 20 19 19 17 16 16 15 15 13 10 9 9 8
17 17 16 16 15 15 17 18 16 12 13 15 16 17 17 15 15 14 12 14 17 17 17 18 21 23 23 20 19 19 19 18 19 17 17 17 16 14 13 11 9 9 8 8
15 15 16 16 14 14 16 17 16 14 12 13 14 15 16 15 15 19 20 17 17 15 15 17 20 21 21 20 19 19 19 15 16 16 17 16 16 14 12 11 10 9 8 8
15 16 17 17 15 15 15 16 14 14 14 15 16 15 15 14 14 17 19 16 16 15 15 17 19 20 19 19 20 20 20 19 14 14 15 14 13 12 11 10 9 8 7 7
18 17 19 19 20 20 22 21 17 17 17 17 19 17 15 15 16 15 14 13 12 12 12 14 14 14 15 17 19 20 21 20 18 16 16 14 11 12 10 9 8 7 7 6
Wind_Direction
301 304 290 291 299 292 275 272 271 273 264 273 289 305 302 309 318 323 321 331 323 307 299 244 331 319 317 321 302 270 275 279 275 285 270 277 49 8 24 29 2 356 342 331
294 306 306 297 294 278 283 286 286 274 275 296 306 312 314 319 320 319 318 306 304 301 310 323 346 323 339 328 317 281 282 286 290 281 268 215 275 126 141 136 72 335 283 286
276 298 304 295 297 264 286 288 280 272 277 296 307 308 309 317 324 329 330 319 309 305 299 266 303 308 321 319 326 288 285 292 307 284 239 229 235 220 203 189 37 301 282 269
282 292 278 300 316 308 283 307 300 324 326 320 321 321 319 318 320 332 333 337 344 334 320 323 324 323 325 327 308 297 312 312 298 223 224 218 232 209 232 239 259 290 307 309
285 279 288 295 306 295 281 256 267 293 312 326 336 333 322 330 313 314 320 339 342 343 340 331 327 317 325 333 320 316 316 290 302 221 201 206 219 246 251 246 275 287 304 311
278 274 280 305 326 310 73 224 320 356 329 328 316 310 321 335 301 309 318 333 334 340 339 329 323 316 326 327 328 326 312 294 285 197 221 246 269 274 284 292 299 307 309 309
281 283 299 306 315 358 326 326 336 332 332 341 326 344 358 355 341 312 327 335 341 345 351 321 300 300 313 313 313 307 305 299 296 303 318 314 311 306 303 305 309 305 305 306
278 280 286 312 326 322 328 350 359 342 328 353 8 23 30 11 9 347 342 351 354 354 355 348 323 312 312 299 300 302 307 314 314 318 320 319 313 307 304 303 305 304 305 303
299 292 300 307 336 329 349 359 352 357 7 33 51 41 37 25 17 10 357 352 353 347 342 320 313 320 306 304 311 307 307 307 310 319 324 321 317 313 309 308 307 308 309 307
299 292 290 296 314 331 339 347 4 19 30 37 30 38 26 29 12 7 359 359 355 346 331 322 317 320 315 309 315 320 319 317 317 316 318 318 318 314 313 314 313 312 313 312
309 291 294 285 322 320 312 330 353 7 21 23 34 37 42 22 10 0 -0 358 351 347 338 323 318 321 323 327 328 323 319 317 315 315 313 310 313 314 314 317 316 317 320 321
297 299 313 312 295 305 298 309 313 316 341 13 26 28 20 15 8 359 356 355 352 345 339 333 329 326 326 330 331 333 330 324 320 318 318 317 316 314 316 313 313 316 324 330
293 290 322 294 287 310 280 295 283 301 295 320 348 357 9 18 24 17 5 356 350 352 346 336 328 324 323 324 324 323 326 333 332 329 324 320 318 314 314 312 317 321 321 321
265 284 261 278 270 282 274 299 326 316 319 336 338 6 16 20 16 4 357 355 351 344 338 334 331 328 327 328 326 326 326 328 334 334 332 330 325 322 321 315 309 307 315 318
314 4 7 338 316 336 342 326 308 302 314 328 354 4 6 2 1 1 359 353 344 337 334 335 333 328 325 324 323 322 324 326 327 333 336 334 333 327 320 314 312 313 317 320
337 328 334 308 327 339 285 336 339 350 350 351 358 3 4 10 18 9 358 351 343 338 336 335 333 331 329 326 322 320 322 321 323 324 324 325 324 329 330 325 326 332 335 331
319 303 305 307 81 56 8 340 350 7 12 11 15 17 17 7 355 351 351 349 346 336 330 328 324 323 322 320 317 312 315 309 312 317 322 322 324 334 0 358 343 335 338 337
300 289 147 87 93 19 349 355 1 13 23 29 26 21 20 8 359 355 348 336 333 335 332 330 327 324 322 321 316 313 310 307 311 317 323 327 321 332 347 348 352 348 346 347
276 281 351 340 359 29 43 29 21 26 17 18 21 15 7 2 5 1 339 329 334 338 333 324 315 316 322 319 314 315 312 309 312 319 321 322 319 317 332 347 353 357 358 355
316 333 342 346 357 20 28 11 6 4 10 16 18 11 2 339 350 345 334 323 324 329 324 322 324 323 321 318 319 320 320 319 321 322 324 331 333 330 325 349 11 22 9 351
346 346 349 357 360 357 353 349 349 359 4 5 18 28 28 9 1 357 347 334 339 344 338 330 334 331 329 328 331 331 329 329 335 331 331 335 336 341 346 357 1 339 341 345
349 345 347 346 348 352 352 348 350 7 12 16 25 23 19 15 5 9 12 10 4 353 352 349 349 345 337 336 339 340 344 344 341 341 338 344 344 349 354 355 357 347 341 352
348 350 353 355 359 359 358 4 9 17 13 10 9 9 7 11 17 14 357 2 9 9 2 2 -0 347 336 340 348 350 350 352 349 347 349 359 1 1 360 1 1 29 46 47
2 1 13 15 18 18 14 13 18 22 13 8 8 8 8 10 10 17 17 11 6 2 360 359 354 345 344 355 1 4 7 5 359 356 356 357 359 2 6 11 18 18 18 17
12 12 7 6 8 8 4 6 7 9 8 6 3 1 357 358 358 357 358 1 1 3 6 359 350 347 350 352 355 354 352 358 -0 360 356 355 359 6 12 18 24 27 18 26
3 2 1 0 8 2 3 2 360 359 357 350 347 349 352 353 353 350 351 358 359 357 354 348 345 344 348 347 345 341 338 333 342 349 348 351 353 358 0 2 10 24 28 28
356 358 350 352 358 356 349 348 345 344 343 341 339 339 342 345 348 351 358 5 8 7 8 1 354 353 354 350 343 336 327 327 332 333 332 334 342 344 347 351 356 5 7 9